This is the latest recevied weather packets stored in our database for station/object KD9ZDW. If no packets are shown the sender has not sent any weather packets the latest 10 day(s).
| Time | Temp. | Humidity | Pressure | Rain* | Wind** | Luminosity | Snow |
|---|---|---|---|---|---|---|---|
| 1777498673 | 13.89° C | 65% | 1013.1 hPa | 0 mm | - | 313 W/m² | - |
| 1777498370 | 14.44° C | 64% | 1013.2 hPa | 0 mm | - | 264 W/m² | - |
| 1777498068 | 15° C | 64% | 1013.2 hPa | 0 mm | - | 241 W/m² | - |
| 1777497764 | 13.33° C | 68% | 1013.1 hPa | 0 mm | - | 493 W/m² | - |
| 1777497461 | 13.89° C | 67% | 1013.1 hPa | 0 mm | - | 191 W/m² | - |
| 1777497157 | 13.89° C | 67% | 1013.1 hPa | 0 mm | - | 162 W/m² | - |
| 1777496854 | 13.89° C | 67% | 1013 hPa | 0 mm | - | 157 W/m² | - |
| 1777496551 | 13.89° C | 66% | 1013.2 hPa | 0 mm | - | 175 W/m² | - |
| 1777496247 | 13.89° C | 66% | 1013.1 hPa | 0 mm | - | 120 W/m² | - |
| 1777495943 | 13.89° C | 67% | 1013 hPa | 0 mm | - | 122 W/m² | - |
| 1777495639 | 13.89° C | 66% | 1013 hPa | 0 mm | - | 137 W/m² | - |
| 1777495335 | 13.89° C | 65% | 1012.8 hPa | 0 mm | - | 142 W/m² | - |
| 1777495033 | 14.44° C | 66% | 1012.8 hPa | 0 mm | - | 110 W/m² | - |
| 1777494730 | 14.44° C | 65% | 1012.9 hPa | 0 mm | - | 121 W/m² | - |
| 1777494427 | 14.44° C | 66% | 1012.9 hPa | 0 mm | - | 147 W/m² | - |
| 1777494123 | 14.44° C | 66% | 1012.8 hPa | 0 mm | - | 157 W/m² | - |
| 1777493820 | 14.44° C | 66% | 1012.8 hPa | 0 mm | - | 181 W/m² | - |
| 1777493519 | 13.89° C | 69% | 1012.7 hPa | 0 mm | - | 150 W/m² | - |
| 1777493215 | 13.89° C | 73% | 1012.8 hPa | 0 mm | - | 134 W/m² | - |
| 1777492912 | 13.89° C | 73% | 1012.7 hPa | 0 mm | - | 98 W/m² | - |
| 1777492608 | 13.89° C | 73% | 1012.6 hPa | 0 mm | - | 89 W/m² | - |
| 1777492304 | 13.89° C | 72% | 1012.8 hPa | 0 mm | - | 97 W/m² | - |
| 1777492001 | 13.89° C | 71% | 1012.9 hPa | 0 mm | - | 112 W/m² | - |
| 1777491697 | 14.44° C | 71% | 1012.7 hPa | 0 mm | - | 120 W/m² | - |
| 1777491395 | 14.44° C | 71% | 1012.6 hPa | 0 mm | - | 163 W/m² | - |
* Rain latest hour (hover to see other rain measurements)
** Current wind speed in m/s (hover to see current wind gust speed)